Starlink 2547

operational
NORAD ID: 48286 Int'l Des: 2021-036 Owner: SPXS Country: US Constellation: starlink
LEOCIRCULARSTARLINK_TYPE

About Starlink 2547

Description loading...

Live Position

Loading 3D Globe...

Upcoming Passes

Altitude History

Altitude vs Time

uPlot chart will show altitude changes over time

Two-Line Element Set

1 48286U 21036L 25303.30796950 -.00000373 00000-0 -61080-5 0 9997
2 48286 53.0545 307.1920 0001597 86.5356 273.5816 15.06402298248653
Epoch: Oct 30, 2025 • Age: 20 hours

Current Status

Altitude 565.6 km
Velocity 7.58 km/s
Sub-Earth Point -50.19°S, 143.35°E
Launch Date Apr 29, 2021
Age 4.5 years
Type internet

Technical Details

Classification Payload
Mass 260.00 kg
Dry Mass 248.00 kg
Total Mass 260.00 kg
Length 0.20 m
Diameter 2.80 m
Span 9.00 m
Shape Box + pan
Manufacturer SPXS
Bus Type Starlink
Phase Status In Orbit
Owner/State SPXS/US

Large Constellations

Loading constellations...